This is the latest recevied weather packets stored in our database for station/object KB4MOX. If no packets are shown the sender has not sent any weather packets the latest 10 day(s).
| Time | Temp. | Humidity | Pressure | Rain* | Wind** | Luminosity | Snow |
|---|---|---|---|---|---|---|---|
| 1777656597 | 20° C | 66% | 1013.2 hPa | 0 mm | - | 387 W/m² | - |
| 1777656293 | 20° C | 64% | 1013.5 hPa | 0 mm | - | 345 W/m² | - |
| 1777655989 | 20° C | 65% | 1013.3 hPa | 0 mm | - | 376 W/m² | - |
| 1777655685 | 20° C | 65% | 1013.6 hPa | 0 mm | - | 265 W/m² | - |
| 1777655382 | 20.56° C | 64% | 1013.5 hPa | 0 mm | - | 223 W/m² | - |
| 1777655078 | 20.56° C | 63% | 1013.7 hPa | 0 mm | - | 280 W/m² | - |
| 1777654776 | 20.56° C | 64% | 1013.7 hPa | 0 mm | - | 425 W/m² | - |
| 1777654474 | 20.56° C | 65% | 1013.8 hPa | 0 mm | - | 330 W/m² | - |
| 1777654171 | 20.56° C | 63% | 1013.6 hPa | 0 mm | - | 561 W/m² | - |
| 1777653869 | 20.56° C | 63% | 1013.5 hPa | 0 mm | - | 515 W/m² | - |
| 1777653565 | 20° C | 66% | 1013.8 hPa | 0 mm | - | 436 W/m² | - |
| 1777653261 | 20° C | 64% | 1013.9 hPa | 0 mm | - | 620 W/m² | - |
| 1777652958 | 20° C | 66% | 1013.6 hPa | 0 mm | - | 518 W/m² | - |
| 1777652655 | 19.44° C | 67% | 1013.7 hPa | 0 mm | - | 401 W/m² | - |
| 1777652352 | 18.89° C | 66% | 1013.7 hPa | 0 mm | - | 375 W/m² | - |
| 1777652049 | 18.89° C | 66% | 1013.8 hPa | 0 mm | - | 663 W/m² | - |
| 1777651746 | 18.89° C | 65% | 1013.9 hPa | 0 mm | - | 437 W/m² | - |
| 1777651442 | 18.89° C | 63% | 1013.9 hPa | 0 mm | - | 320 W/m² | - |
| 1777651140 | 18.89° C | 67% | 1013.6 hPa | 0 mm | - | 346 W/m² | - |
| 1777650836 | 18.33° C | 67% | 1013.8 hPa | 0 mm | - | 367 W/m² | - |
| 1777650533 | 17.78° C | 67% | 1013.9 hPa | 0 mm | - | 464 W/m² | - |
| 1777650231 | 17.78° C | 68% | 1013.9 hPa | 0 mm | - | 522 W/m² | - |
| 1777649928 | 17.78° C | 68% | 1013.7 hPa | 0 mm | - | 316 W/m² | - |
| 1777649625 | 17.78° C | 67% | 1013.7 hPa | 0 mm | - | 495 W/m² | - |
| 1777649320 | 17.22° C | 70% | 1013.8 hPa | 0 mm | - | 335 W/m² | - |
* Rain latest hour (hover to see other rain measurements)
** Current wind speed in m/s (hover to see current wind gust speed)